Location: Helsinki
(60.1699°N, 24.9384°E)
Time: 23:46:27
(UTC+02:00)

Altair - Pass Details

Date: 30 October 2020
Orbit: 1502 x 1682 km, 47.2° (Epoch: 25 November)

Event Time Altitude Azimuth Distance (km) Brightness Sun altitude
Rises 05:06:18 0° 211° (SSW) 4,649 - -19.2°
Exits shadow 05:06:27 - 210° (SSW) 4,607 9.7 -19.2°
Reaches altitude 10° 05:09:56 10° 199° (SSW) 3,686 9.3 -18.7°
Maximum altitude 05:17:03 26° 148° (SSE) 2,709 9.1 -17.9°
Drops below altitude 10° 05:24:21 10° 98° (E) 3,793 10.8 -16.9°
Sets 05:28:09 0° 86° (E) 4,810 11.9 -16.5°
